TimeEDT,TemperatureF,Dew PointF,Humidity,Sea Level PressureIn,VisibilityMPH,Wind Direction,Wind SpeedMPH,Gust SpeedMPH,PrecipitationIn,Events,Conditions,WindDirDegrees,DateUTC
12:53 AM,59.0,55.9,90,30.13,10.0,Calm,Calm,-,N/A,,Clear,0,2013-06-20 04:53:00
1:53 AM,57.0,55.0,93,30.14,9.0,Calm,Calm,-,N/A,,Clear,0,2013-06-20 05:53:00
2:53 AM,55.9,54.0,93,30.14,7.0,Calm,Calm,-,N/A,,Clear,0,2013-06-20 06:53:00
3:53 AM,55.0,53.1,93,30.14,8.0,Calm,Calm,-,N/A,,Clear,0,2013-06-20 07:53:00
4:53 AM,55.9,53.1,90,30.15,6.0,Calm,Calm,-,N/A,,Clear,0,2013-06-20 08:53:00
5:53 AM,54.0,52.0,93,30.17,3.0,Calm,Calm,-,N/A,,Clear,0,2013-06-20 09:53:00
6:53 AM,55.0,53.1,93,30.18,4.0,Calm,Calm,-,N/A,,Partly Cloudy,0,2013-06-20 10:53:00
7:53 AM,60.1,55.0,83,30.19,9.0,Calm,Calm,-,N/A,,Clear,0,2013-06-20 11:53:00
8:53 AM,64.9,57.9,78,30.20,10.0,Calm,Calm,-,N/A,,Clear,0,2013-06-20 12:53:00
9:53 AM,69.1,59.0,70,30.21,10.0,Calm,Calm,-,N/A,,Partly Cloudy,0,2013-06-20 13:53:00
10:53 AM,73.0,57.9,59,30.21,10.0,Calm,Calm,-,N/A,,Clear,0,2013-06-20 14:53:00
11:53 AM,73.9,55.9,53,30.21,10.0,Calm,Calm,-,N/A,,Scattered Clouds,0,2013-06-20 15:53:00
12:53 PM,77.0,57.0,50,30.20,10.0,Calm,Calm,-,N/A,,Scattered Clouds,0,2013-06-20 16:53:00
1:53 PM,78.1,57.0,48,30.19,10.0,Variable,5.8,-,N/A,,Partly Cloudy,0,2013-06-20 17:53:00
2:53 PM,79.0,54.0,42,30.18,10.0,Variable,5.8,-,N/A,,Partly Cloudy,0,2013-06-20 18:53:00
3:53 PM,80.1,55.9,43,30.17,10.0,SW,4.6,-,N/A,,Clear,230,2013-06-20 19:53:00
4:53 PM,81.0,55.9,42,30.17,10.0,Variable,4.6,-,N/A,,Clear,0,2013-06-20 20:53:00
5:53 PM,80.1,57.0,45,30.17,10.0,NNW,5.8,-,N/A,,Clear,330,2013-06-20 21:53:00
6:53 PM,79.0,57.0,47,30.17,10.0,North,5.8,-,N/A,,Clear,350,2013-06-20 22:53:00
7:53 PM,79.0,57.9,48,30.18,10.0,Calm,Calm,-,N/A,,Clear,0,2013-06-20 23:53:00
8:53 PM,72.0,60.1,66,30.17,10.0,Calm,Calm,-,N/A,,Clear,0,2013-06-21 00:53:00
9:53 PM,69.1,59.0,70,30.18,10.0,Calm,Calm,-,N/A,,Clear,0,2013-06-21 01:53:00
10:53 PM,66.0,59.0,78,30.19,10.0,Calm,Calm,-,N/A,,Clear,0,2013-06-21 02:53:00
11:53 PM,64.0,59.0,84,30.19,10.0,Calm,Calm,-,N/A,,Clear,0,2013-06-21 03:53:00